| time (UTC) | temp F | wind direction | speed MPH | gust MPH | rain 1hr in | rain 24hr in | rain mn in | humidity % | barometer mb |
| 20260831124541 | 68 | 283 | 9.0 | 16.0 | 0.00 | 0.46 | 0.29 | 74 | 1012.3 |
| 20260831123542 | 67 | 265 | 8.0 | 17.0 | 0.00 | 0.46 | 0.29 | 75 | 1012.1 |
| 20260831122545 | 68 | 255 | 7.0 | 16.0 | 0.00 | 0.46 | 0.29 | 76 | 1012.1 |
| 20260831121541 | 70 | 244 | 7.0 | 15.0 | 0.00 | 0.46 | 0.29 | 72 | 1011.9 |
| 20260831120540 | 69 | 258 | 9.0 | 19.0 | 0.00 | 0.46 | 0.29 | 72 | 1011.8 |
| 20260831115703 | 67 | 288 | 8.0 | 19.0 | 0.02 | 0.46 | 0.29 | 73 | 1011.7 |
| 20260831115542 | 68 | 255 | 8.0 | 18.0 | 0.00 | 0.46 | 0.29 | 73 | 1011.7 |
| 20260831115521 | 68 | 283 | 9.0 | 20.0 | 0.02 | 0.46 | 0.29 | 74 | 1011.6 |
| 20260831112722 | 65 | 170 | 7.0 | 19.0 | 0.02 | 0.46 | 0.29 | 79 | 1011.2 |
| 20260831112543 | 67 | 236 | 7.0 | 21.0 | 0.02 | 0.46 | 0.29 | 74 | 1011.4 |
| 20260831110533 | 65 | 234 | 7.0 | 15.0 | 0.02 | 0.46 | 0.29 | 85 | 1011.0 |
| 20260831105536 | 65 | 294 | 7.0 | 20.0 | 0.02 | 0.46 | 0.29 | 83 | 1011.1 |
| 20260831104532 | 67 | 248 | 7.0 | 17.0 | 0.00 | 0.44 | 0.28 | 80 | 1010.7 |
| 20260831103532 | 67 | 127 | 7.0 | 15.0 | 0.00 | 0.44 | 0.28 | 80 | 1010.6 |
| 20260831102531 | 67 | 242 | 8.0 | 21.0 | 0.00 | 0.44 | 0.28 | 82 | 1010.6 |
| 20260831101532 | 66 | 206 | 7.0 | 20.0 | 0.00 | 0.44 | 0.28 | 85 | 1010.4 |
| 20260831100535 | 65 | 257 | 9.0 | 21.0 | 0.00 | 0.44 | 0.28 | 88 | 1010.5 |
| 20260831095543 | 64 | 238 | 9.0 | 27.0 | 0.00 | 0.44 | 0.28 | 89 | 1010.6 |
| 20260831095525 | 63 | 183 | 9.0 | 21.0 | 0.00 | 0.44 | 0.28 | 89 | 1010.2 |
| 20260831093534 | 63 | 184 | 6.0 | 16.0 | 0.00 | 0.44 | 0.28 | 89 | 1010.2 |
| 20260831092537 | 64 | 189 | 9.0 | 29.0 | 0.00 | 0.44 | 0.28 | 88 | 1010.2 |
| 20260831091535 | 64 | 267 | 7.0 | 21.0 | 0.00 | 0.44 | 0.28 | 90 | 1010.0 |
| 20260831090534 | 64 | 193 | 6.0 | 14.0 | 0.00 | 0.44 | 0.28 | 92 | 1010.2 |
| 20260831085530 | 63 | 191 | 6.0 | 16.0 | 0.02 | 0.44 | 0.28 | 93 | 1009.9 |
| 20260831084530 | 62 | 189 | 5.0 | 13.0 | 0.04 | 0.44 | 0.28 | 94 | 1010.0 |
| 20260831083531 | 61 | 215 | 4.0 | 11.0 | 0.06 | 0.44 | 0.28 | 95 | 1010.0 |
| 20260831082529 | 60 | 140 | 4.0 | 12.0 | 0.09 | 0.44 | 0.28 | 95 | 1009.9 |
| 20260831081531 | 60 | 231 | 4.0 | 10.0 | 0.17 | 0.44 | 0.28 | 95 | 1009.7 |
| 20260831081428 | 59 | 196 | 6.0 | 14.0 | 0.18 | 0.44 | 0.28 | 95 | 1009.5 |
| 20260831075531 | 59 | 195 | 5.0 | 18.0 | 0.23 | 0.43 | 0.26 | 94 | 1009.6 |
| 20260831074538 | 60 | 205 | 3.0 | 11.0 | 0.21 | 0.40 | 0.23 | 95 | 1009.7 |
| 20260831074516 | 60 | 140 | 4.0 | 14.0 | 0.19 | 0.38 | 0.21 | 95 | 1009.7 |
| 20260831073423 | 60 | 205 | 5.0 | 14.0 | 0.17 | 0.35 | 0.19 | 94 | 1009.5 |
| 20260831071537 | 60 | 186 | 4.0 | 9.0 | 0.09 | 0.28 | 0.11 | 94 | 1009.5 |
| 20260831070537 | 60 | 162 | 6.0 | 15.0 | 0.08 | 0.26 | 0.09 | 93 | 1009.5 |
| 20260831065531 | 60 | 154 | 6.0 | 18.0 | 0.02 | 0.20 | 0.03 | 93 | 1009.5 |
| 20260831064531 | 60 | 171 | 6.0 | 18.0 | 0.01 | 0.19 | 0.02 | 93 | 1009.4 |
| 20260831063535 | 60 | 203 | 6.0 | 16.0 | 0.02 | 0.19 | 0.02 | 93 | 1009.2 |
| 20260831062529 | 60 | 113 | 7.0 | 16.0 | 0.02 | 0.19 | 0.02 | 93 | 1009.2 |
| 20260831061528 | 60 | 137 | 6.0 | 14.0 | 0.02 | 0.18 | 0.02 | 92 | 1009.2 |
| 20260831060533 | 60 | 242 | 8.0 | 18.0 | 0.02 | 0.18 | 0.02 | 92 | 1009.1 |
| 20260831055534 | 60 | 142 | 7.0 | 17.0 | 0.02 | 0.18 | 0.02 | 91 | 1008.9 |
| 20260831054540 | 61 | 219 | 7.0 | 18.0 | 0.02 | 0.18 | 0.01 | 90 | 1008.8 |
| 20260831053531 | 61 | 195 | 7.0 | 20.0 | 0.00 | 0.17 | 0.00 | 90 | 1008.5 |
| 20260831052527 | 61 | 238 | 8.0 | 18.0 | 0.00 | 0.17 | 0.00 | 89 | 1008.8 |
| 20260831051522 | 61 | 239 | 7.0 | 22.0 | 0.00 | 0.17 | 0.00 | 90 | 1008.9 |
| 20260831050525 | 61 | 175 | 6.0 | 14.0 | 0.00 | 0.17 | 0.00 | 90 | 1008.8 |
| 20260831045524 | 61 | 177 | 7.0 | 15.0 | 0.00 | 0.17 | 0.00 | 89 | 1008.3 |
| 20260831045515 | 61 | 221 | 6.0 | 15.0 | 0.00 | 0.17 | 0.00 | 89 | 1008.5 |
| 20260831043522 | 61 | 180 | 5.0 | 15.0 | 0.00 | 0.17 | 0.00 | 89 | 1008.3 |
| 20260831042638 | 61 | 195 | 6.0 | 15.0 | 0.00 | 0.17 | 0.00 | 89 | 1008.6 |
| 20260831042528 | 61 | 170 | 7.0 | 17.0 | 0.00 | 0.17 | 0.00 | 89 | 1008.5 |
| 20260831040517 | 61 | 180 | 7.0 | 19.0 | 0.00 | 0.17 | 0.00 | 89 | 1008.5 |
| 20260831035515 | 61 | 165 | 7.0 | 19.0 | 0.00 | 0.17 | 0.00 | 90 | 1008.7 |
| 20260831034519 | 61 | 148 | 6.0 | 14.0 | 0.00 | 0.17 | 0.00 | 90 | 1008.6 |
| 20260831033517 | 61 | 216 | 6.0 | 12.0 | 0.00 | 0.17 | 0.00 | 91 | 1008.7 |
| 20260831032556 | 61 | 204 | 4.0 | 11.0 | 0.00 | 0.17 | 0.00 | 91 | 1008.7 |
| 20260831032517 | 61 | 243 | 5.0 | 14.0 | 0.00 | 0.17 | 0.00 | 91 | 1008.7 |
| 20260831030517 | 61 | 166 | 5.0 | 14.0 | 0.00 | 0.17 | 0.00 | 91 | 1008.8 |
| 20260831025519 | 61 | 173 | 5.0 | 12.0 | 0.00 | 0.17 | 0.00 | 91 | 1009.0 |
| 20260831024528 | 61 | 142 | 5.0 | 12.0 | 0.00 | 0.17 | 0.00 | 92 | 1009.0 |
| 20260831023517 | 61 | 182 | 4.0 | 12.0 | 0.00 | 0.17 | 0.00 | 92 | 1008.8 |
| 20260831022517 | 61 | 133 | 4.0 | 11.0 | 0.00 | 0.17 | 0.00 | 92 | 1008.7 |
| 20260831021514 | 61 | 188 | 5.0 | 12.0 | 0.00 | 0.17 | 0.00 | 91 | 1008.9 |
| 20260831020520 | 61 | 165 | 6.0 | 14.0 | 0.00 | 0.17 | 0.00 | 92 | 1009.1 |
| 20260831015515 | 61 | 161 | 5.0 | 12.0 | 0.00 | 0.17 | 0.00 | 92 | 1009.1 |
| 20260831014518 | 62 | 169 | 6.0 | 16.0 | 0.00 | 0.17 | 0.00 | 92 | 1009.1 |
| 20260831013517 | 62 | 165 | 6.0 | 16.0 | 0.00 | 0.17 | 0.00 | 92 | 1009.2 |
| 20260831012514 | 62 | 202 | 6.0 | 21.0 | 0.00 | 0.17 | 0.00 | 92 | 1009.2 |
| 20260831011514 | 61 | 236 | 5.0 | 14.0 | 0.00 | 0.17 | 0.00 | 92 | 1009.1 |
| 20260831010516 | 61 | 153 | 4.0 | 13.0 | 0.00 | 0.17 | 0.00 | 93 | 1009.2 |
| 20260831005513 | 61 | 184 | 3.0 | 8.0 | 0.00 | 0.17 | 0.00 | 93 | 1009.2 |
| 20260831004517 | 61 | 153 | 3.0 | 8.0 | 0.00 | 0.17 | 0.00 | 93 | 1009.2 |
| 20260831004505 | 61 | 194 | 3.0 | 8.0 | 0.00 | 0.17 | 0.00 | 94 | 1009.3 |
| 20260831002518 | 61 | 137 | 2.0 | 9.0 | 0.00 | 0.17 | 0.00 | 94 | 1009.3 |
| 20260831001514 | 61 | 152 | 2.0 | 8.0 | 0.00 | 0.17 | 0.00 | 94 | 1009.3 |
| 20260831000717 | 61 | 175 | 3.0 | 7.0 | 0.00 | 0.17 | 0.00 | 94 | 1009.4 |
| 20260831000536 | 61 | 166 | 2.0 | 7.0 | 0.00 | 0.17 | 0.00 | 94 | 1009.4 |
| 20260830235400 | 61 | 177 | 3.0 | 7.0 | 0.00 | 0.17 | 0.00 | 94 | 1009.7 |
| 20260830233510 | 61 | 192 | 3.0 | 7.0 | 0.00 | 0.17 | 0.00 | 94 | 1009.8 |
| 20260830232511 | 61 | 223 | 3.0 | 8.0 | 0.00 | 0.17 | 0.00 | 94 | 1009.7 |
| 20260830231513 | 61 | 178 | 2.0 | 7.0 | 0.00 | 0.17 | 0.00 | 94 | 1009.8 |
| 20260830230517 | 61 | 200 | 3.0 | 7.0 | 0.00 | 0.17 | 0.00 | 95 | 1009.7 |
| 20260830225516 | 61 | 205 | 1.0 | 5.0 | 0.00 | 0.17 | 0.00 | 95 | 1009.8 |
| 20260830224524 | 61 | 192 | 2.0 | 5.0 | 0.00 | 0.17 | 0.00 | 95 | 1009.9 |
| 20260830223512 | 61 | 159 | 2.0 | 6.0 | 0.00 | 0.17 | 0.00 | 95 | 1009.7 |
| 20260830222513 | 61 | 189 | 1.0 | 4.0 | 0.00 | 0.17 | 0.00 | 95 | 1009.8 |
| 20260830221514 | 61 | 142 | 1.0 | 3.0 | 0.00 | 0.17 | 0.00 | 95 | 1009.8 |
| 20260830220509 | 61 | 131 | 2.0 | 7.0 | 0.00 | 0.17 | 0.00 | 95 | 1009.2 |
| 20260830215513 | 61 | 153 | 2.0 | 5.0 | 0.00 | 0.17 | 0.17 | 95 | 1009.3 |
| 20260830214509 | 61 | 136 | 2.0 | 5.0 | 0.00 | 0.17 | 0.17 | 95 | 1009.4 |
| 20260830214448 | 62 | 128 | 3.0 | 7.0 | 0.01 | 0.17 | 0.17 | 95 | 1009.5 |
| 20260830212505 | 62 | 124 | 2.0 | 4.0 | 0.01 | 0.17 | 0.17 | 95 | 1009.7 |
| 20260830211504 | 63 | 165 | 1.0 | 4.0 | 0.02 | 0.17 | 0.17 | 94 | 1009.6 |
| 20260830210503 | 63 | 165 | 1.0 | 4.0 | 0.02 | 0.17 | 0.17 | 94 | 1009.8 |
| 20260830205505 | 63 | 144 | 1.0 | 6.0 | 0.17 | 0.17 | 0.17 | 94 | 1009.9 |
| 20260830204507 | 63 | 154 | 1.0 | 5.0 | 0.17 | 0.17 | 0.17 | 94 | 1010.0 |
| 20260830203504 | 62 | 206 | 0.0 | 1.0 | 0.16 | 0.16 | 0.16 | 93 | 1010.0 |
| 20260830202502 | 62 | 206 | 0.0 | 3.0 | 0.16 | 0.16 | 0.16 | 92 | 1009.9 |
| 20260830201503 | 62 | 206 | 1.0 | 4.0 | 0.15 | 0.15 | 0.15 | 90 | 1010.4 |
| 20260830201416 | 63 | 229 | 6.0 | 16.0 | 0.14 | 0.14 | 0.14 | 87 | 1010.6 |
| 20260830195502 | 65 | 278 | 2.0 | 10.0 | 0.00 | 0.00 | 0.00 | 87 | 1010.6 |
| 20260830194503 | 65 | 145 | 2.0 | 5.0 | 0.00 | 0.00 | 0.00 | 87 | 1010.2 |
| 20260830193501 | 65 | 157 | 2.0 | 5.0 | 0.00 | 0.00 | 0.00 | 86 | 1010.2 |
| 20260830193342 | 65 | 158 | 2.0 | 5.0 | 0.00 | 0.00 | 0.00 | 86 | 1010.2 |
| 20260830191511 | 65 | 146 | 2.0 | 4.0 | 0.00 | 0.00 | 0.00 | 85 | 1010.2 |
| 20260830190512 | 66 | 146 | 2.0 | 4.0 | 0.00 | 0.00 | 0.00 | 84 | 1010.2 |
| 20260830185501 | 66 | 175 | 1.0 | 6.0 | 0.00 | 0.00 | 0.00 | 83 | 1010.2 |
| 20260830184614 | 67 | 207 | 1.0 | 4.0 | 0.00 | 0.00 | 0.00 | 83 | 1010.2 |
| 20260830183502 | 67 | 146 | 2.0 | 5.0 | 0.00 | 0.01 | 0.00 | 82 | 1010.2 |
| 20260830182500 | 67 | 138 | 2.0 | 6.0 | 0.00 | 0.01 | 0.00 | 82 | 1010.3 |
| 20260830181501 | 67 | 161 | 2.0 | 6.0 | 0.00 | 0.11 | 0.00 | 81 | 1010.3 |
| 20260830180459 | 68 | 136 | 1.0 | 4.0 | 0.00 | 0.15 | 0.00 | 80 | 1010.4 |
| 20260830175458 | 68 | 172 | 3.0 | 7.0 | 0.00 | 0.15 | 0.00 | 80 | 1010.5 |
| 20260830174508 | 68 | 153 | 2.0 | 5.0 | 0.00 | 0.15 | 0.00 | 80 | 1010.5 |
| 20260830173507 | 69 | 136 | 2.0 | 7.0 | 0.00 | 0.15 | 0.00 | 80 | 1010.7 |
| 20260830172501 | 68 | 142 | 2.0 | 5.0 | 0.00 | 0.15 | 0.00 | 82 | 1010.7 |
| 20260830171455 | 68 | 210 | 2.0 | 7.0 | 0.00 | 0.15 | 0.00 | 83 | 1010.8 |
| 20260830170451 | 67 | 146 | 3.0 | 8.0 | 0.00 | 0.15 | 0.00 | 83 | 1010.9 |
| 20260830170418 | 67 | 180 | 4.0 | 10.0 | 0.00 | 0.15 | 0.00 | 83 | 1010.8 |
| 20260830164453 | 67 | 165 | 4.0 | 10.0 | 0.00 | 0.15 | 0.00 | 83 | 1010.9 |
| 20260830163451 | 67 | 153 | 2.0 | 6.0 | 0.00 | 0.15 | 0.00 | 83 | 1010.6 |
| 20260830162449 | 67 | 155 | 5.0 | 11.0 | 0.00 | 0.15 | 0.00 | 83 | 1010.8 |
| 20260830161450 | 68 | 154 | 5.0 | 17.0 | 0.00 | 0.15 | 0.00 | 82 | 1010.9 |
| 20260830160452 | 71 | 148 | 5.0 | 20.0 | 0.00 | 0.15 | 0.00 | 74 | 1011.1 |
| 20260830155452 | 72 | 246 | 4.0 | 12.0 | 0.00 | 0.15 | 0.00 | 70 | 1010.9 |
| 20260830154450 | 72 | 191 | 4.0 | 10.0 | 0.00 | 0.16 | 0.00 | 70 | 1010.8 |
| 20260830153454 | 72 | 175 | 3.0 | 8.0 | 0.00 | 0.16 | 0.00 | 70 | 1011.0 |
| 20260830152936 | 73 | 157 | 4.0 | 10.0 | 0.00 | 0.17 | 0.00 | 70 | 1011.3 |
| 20260830152515 | 72 | 220 | 5.0 | 10.0 | 0.00 | 0.17 | 0.00 | 70 | 1011.1 |
| 20260830150819 | 73 | 260 | 4.0 | 11.0 | 0.00 | 0.17 | 0.00 | 70 | 1011.6 |
| 20260830150732 | 72 | 170 | 4.0 | 14.0 | 0.00 | 0.19 | 0.00 | 71 | 1011.6 |
| 20260830150513 | 72 | 178 | 4.0 | 13.0 | 0.00 | 0.17 | 0.00 | 70 | 1011.3 |
| 20260830143457 | 71 | 213 | 4.0 | 11.0 | 0.00 | 0.24 | 0.00 | 70 | 1011.7 |
| 20260830142452 | 72 | 221 | 4.0 | 12.0 | 0.00 | 0.27 | 0.00 | 69 | 1011.9 |
| 20260830141447 | 72 | 190 | 5.0 | 13.0 | 0.00 | 0.28 | 0.00 | 69 | 1011.8 |
| 20260830140548 | 72 | 211 | 5.0 | 13.0 | 0.00 | 0.28 | 0.00 | 66 | 1011.9 |
| 20260830140455 | 72 | 202 | 4.0 | 11.0 | 0.00 | 0.28 | 0.00 | 69 | 1011.9 |
| 20260830135554 | 72 | 245 | 6.0 | 14.0 | 0.00 | 0.28 | 0.00 | 67 | 1012.0 |
| 20260830134040 | 72 | 221 | 4.0 | 9.0 | 0.00 | 0.31 | 0.00 | 66 | 1012.0 |
| 20260830133525 | 73 | 193 | 4.0 | 13.0 | 0.00 | 0.31 | 0.00 | 65 | 1012.0 |
| 20260830132002 | 73 | 212 | 5.0 | 10.0 | 0.00 | 0.31 | 0.00 | 64 | 1012.0 |
| 20260830130455 | 73 | 196 | 6.0 | 15.0 | 0.00 | 0.31 | 0.00 | 63 | 1012.0 |
| 20260830125447 | 73 | 207 | 6.0 | 14.0 | 0.00 | 0.31 | 0.00 | 61 | 1012.1 |